Location: Edinburgh
(55.9500°N, 3.1600°W)
Time: 05:32:22
(UTC+01:00)

OTV 5 (USA 277) - Visible Passes

Search period start: 26 April 2019 00:00
Search period end: 06 May 2019 00:00
Orbit: 309 x 326 km, 54.5° (Epoch: 21 April)

Date Brightness Start Highest point End Pass type
(mag) Time Alt. Az. Time Alt. Az. Time Alt. Az.
26 Apr ? 22:39:37 10° WSW 22:42:16 49° SSE 22:43:08 33° ESE visible
27 Apr ? 00:13:46 10° W 00:14:03 12° W 00:14:03 12° W visible
27 Apr ? 22:54:14 10° WSW 22:56:57 62° S 22:57:40 41° ESE visible
28 Apr ? 00:28:29 10° W 00:28:34 11° W 00:28:34 11° W visible
28 Apr ? 21:34:51 10° SW 21:37:28 41° SSE 21:40:04 10° E visible
28 Apr ? 23:08:55 10° W 23:11:38 65° S 23:11:59 56° SE visible
29 Apr ? 21:49:25 10° WSW 21:52:07 56° S 21:54:48 10° E visible
29 Apr ? 23:23:38 10° W 23:26:11 55° SSW 23:26:11 55° SSW visible
30 Apr ? 22:04:05 10° W 22:06:48 65° S 22:09:24 11° E visible
30 Apr ? 23:38:21 10° W 23:40:17 33° WSW 23:40:17 33° WSW visible
01 May ? 22:18:46 10° W 22:21:29 61° S 22:23:29 16° ESE visible
01 May ? 23:53:10 10° W 23:54:21 19° WSW 23:54:21 19° WSW visible
02 May ? 22:33:29 10° W 22:36:09 48° SSW 22:37:31 23° SE visible
03 May ? 00:08:13 10° WSW 00:08:23 11° WSW 00:08:23 11° WSW visible
03 May ? 22:48:14 10° W 22:50:46 33° SSW 22:51:33 27° SSE visible
04 May ? 23:03:08 10° W 23:05:17 21° SSW 23:05:34 21° SSW visible
05 May ? 21:43:20 10° W 21:45:56 40° SSW 21:48:32 10° SE visible
05 May ? 23:18:28 10° WSW 23:19:36 12° SW 23:19:36 12° SW visible
